Location: Austin
(30.3000°N, 97.7500°W)
Time: 23:43:07
(UTC-05:00)

CZ-4 R/B - Pass Details

Date: 06 May 2026
Orbit: 490 x 537 km, 97.5° (Epoch: 13 May)

Event Time Altitude Azimuth Distance (km) Brightness Sun altitude
Exits shadow 21:44:24 33° 179° (S) 840 1.9 -18.6°
Maximum altitude 21:45:54 75° 259° (WSW) 514 1.2 -18.9°
Drops below altitude 10° 21:49:31 10° 345° (NNW) 1,687 4.5 -19.5°
Sets 21:51:35 0° 347° (NNW) 2,569 5.5 -19.9°
